Location: Unspecified
(0.0000°N, 0.0000°E)
Time: 07:39:32
(UTC+00:00)

Tiangong - Pass Details

Date: 25 July 2021
Orbit: 373 x 386 km, 41.5° (Epoch: 01 August)

Event Time Altitude Azimuth Distance (km) Brightness Sun altitude
Rises 19:14:27 0° 302° (WNW) 2,220 6.6 -16.0°
Reaches altitude 10° 19:16:35 10° 294° (WNW) 1,370 5.2 -16.5°
Maximum altitude 19:19:29 37° 224° (SW) 595 2.2 -17.1°
Enters shadow 19:20:30 28° 181° (S) 736 2.3 -17.4°
